Regional Weather Roundup
Issued by NWS

Current Version | Previous Version | Graphics & Text | Print | Product List | Glossary On
Versions: 1 2 3 4 5 6 7 8 9 10 11 12 13 14 15 16 17 18 19 20 21 22 23 24 25 26 27 28 29 30 31 32 33 34 35 36 37 38 39 40 41 42 43 44 45 46 47 48 49 50
000
ASHW40 PHFO 221430
RWRHI

WEATHER ROUNDUP FOR HAWAII
NATIONAL WEATHER SERVICE HONOLULU HI
400 AM HST SAT NOV 22 2014

THIS IS AN AUTOMATED REPORT THAT HAS NOT BEEN QUALITY CONTROLLED.

NOTE..."FAIR" INDICATES FEW OR NO CLOUDS BELOW 12,000 FEET WITH NO
SIGNIFICANT WEATHER AND/OR OBSTRUCTIONS TO VISIBILITY.

* - THESE SITES REPORT LIMITED FIELDS

HIZ001>004-221500-
KAUAI-NIIHAU-

CITY           SKY/WX    TMP DP  RH WIND       PRES   REMARKS
LIHUE APT      PTCLDY    76  68  76 E12       30.06F
PORT ALLEN*      N/A     73 N/A N/A E13         N/A
POIPU*           N/A     75 N/A N/A NE5G10      N/A
PRINCEVILLE*     N/A     72 N/A N/A MISG        N/A
KOKOLE POINT*  NOT AVBL
MOLOAA DAIRY*  NOT AVBL
WAIMEA HTS*    NOT AVBL
PUU OPAE*      NOT AVBL
PUU LUA*       NOT AVBL
MAKAHA RIDGE*  NOT AVBL
$$

HIZ005>011-221500-
OAHU-

CITY           SKY/WX    TMP DP  RH WIND       PRES   REMARKS
HONOLULU       PTCLDY    77  66  68 E12       30.02F
KALAELOA       CLEAR     71  65  81 CALM      30.04F
KANEOHE MCB    CLEAR     77  69  76 E13       30.04F
WHEELER FIELD  FAIR      67  63  89 W3        30.05F
BELLOWS*         N/A    N/A N/A N/A NE20        N/A
KAHUKU*          N/A    N/A N/A N/A E8G17       N/A
WHEELER*       NOT AVBL
WAIANAE HARBOR NOT AVBL
DILLINGHAM*      N/A     66  61  82 E2          N/A
KAHUKU TRN*      N/A     73  66  78 E9G18       N/A
KAWAILOA*        N/A     70  64  83 E9G18       N/A
KII*             N/A     77  68  73 E18G24      N/A
MAKUA RANGE*     N/A     77  63  61 E10G18      N/A
OAHU FOREST NW NOT AVBL
SCHOFIELD BRK*   N/A     66  63  88 MISG        N/A
SCHOFIELD S*   NOT AVBL
WAIANAE VLY*   NOT AVBL
KUAOKALA*      NOT AVBL
HONOULIUULI*   NOT AVBL
MOKUOLOE IS*     N/A    N/A N/A N/A MISG        N/A
PALEHUA*       NOT AVBL
WAIAWA PHB*    NOT AVBL
$$

HIZ012>013-221500-
MOLOKAI-

CITY           SKY/WX    TMP DP  RH WIND       PRES   REMARKS
MOLOKAI AIRPT  CLEAR     74  65  73 NE10      30.04F
KALAUPAPA      NOT AVBL
MAKAPULAPAI*   NOT AVBL
MOLOKAI 1*     NOT AVBL
PUU ALII*        N/A     58  57  98 E3G13       N/A
$$

HIZ016-221500-
KAHOOLAWE-

CITY           SKY/WX    TMP DP  RH WIND       PRES   REMARKS
KAHOOLAWE*     NOT AVBL
HAKIOAWA*      NOT AVBL
HONOKANAIA*      N/A     77  67  72 NE12G20   30.04F
KANELOA*         N/A     73  66  78 NE9G20    29.27F
KEALIALALO*    NOT AVBL
LUA MAKIKA*    NOT AVBL
$$

HIZ014>015-221500-
LANAI-

CITY           SKY/WX    TMP DP  RH WIND       PRES   REMARKS
LANAI CITY       N/A    N/A N/A N/A MISG        N/A
LANAI 1*       NOT AVBL
$$

HIZ017>028-221500-
MAUI-

CITY           SKY/WX    TMP DP  RH WIND       PRES   REMARKS
KAHULUI        CLEAR     74  65  73 NE10      30.04F
KAPALUA-W MAUI NOT AVBL
HANA AIRPORT   MOCLDY    73  64  73 CALM      30.08F
HANA*            N/A     77 N/A N/A E5          N/A
HALEAKALA SUMM   N/A     46   0  14 NE6G39      N/A
MAALAEA BAY*   NOT AVBL
HALEAKALA*     NOT AVBL
KAUPO GAP*     NOT AVBL
KULA 1*          N/A     55  14  19 E6          N/A
$$

HIZ023>026-221500-
BIG ISLAND OF HAWAII COAST AND LOWER SLOPES-

CITY           SKY/WX    TMP DP  RH WIND       PRES   REMARKS
KAILUA KONA    PTCLDY    75  65  70 CALM      29.98F
HILO           CLOUDY    68  68 100 W6        30.06S
HONOKAA*       NOT AVBL
KAWAIHAE MWT*    N/A     73 N/A N/A SE2         N/A
KAWAIHAE*        N/A     75 N/A N/A NE2         N/A
SOUTH POINT*     N/A     70 N/A N/A NE7         N/A
UPOLU AIRPORT*   N/A    N/A N/A N/A E13         N/A
KAMUELA*       SUNNY     63  57  82 NE16      30.14R
HAKALAU*         N/A     41  36  81 W3          N/A
KALOKO-HONOKO*   N/A     70  64  83 SE2       29.97S
PALI 2*          N/A     63  57  82 NE18G30     N/A
KEALAKOMO*       N/A     75  66  73 N16G23      N/A
KAUPULEHU*     NOT AVBL
KAPAPALA*        N/A     60  58  92 CALM        N/A
LOWER KAHUKU*    N/A     61  59  94 N1          N/A
PUHE CS*       NOT AVBL
PUHO CS*         N/A     74  60  61 E2          N/A
PTA KEAMUKU*     N/A     61  54  77 E2G15       N/A
WAIKOLOA*      NOT AVBL
$$

HIZ027>028-221500-
BIG ISLAND OF HAWAII INTERIOR AND SUMMMITS-

CITY           SKY/WX    TMP DP  RH WIND       PRES   REMARKS
BRADSHAW FIELD CLOUDY    40  38  89 SE5       30.36F
MK VISITOR CEN   N/A      0   0 100 MISG        N/A
MAUNA KEA*       N/A     36 -15  11 S6          N/A
MAUNA LOA*       N/A     41 -11  10 MISG        N/A
MAUNA LOA 1*   NOT AVBL
PTA KIPUKA*      N/A     48  46  93 E3          N/A
PTA RANGE 17*    N/A     50  46  87 E8          N/A
PTA WEST*        N/A     55  50  82 E13         N/A
NENE CABIN*      N/A    N/A N/A N/A N6          N/A
AHUMOA*        NOT AVBL
PTA PORTABLE*  NOT AVBL
PUU MALI*      NOT AVBL
$$

HIC003-221500-
NORTHWEST ISLANDS-

CITY           SKY/WX    TMP DP  RH WIND       PRES   REMARKS
MIDWAY ISLAND  CLOUDY    70  54  56 N9        30.18R
MIDWAY NOS*    NOT AVBL
FRENCH FRIGATE NOT AVBL
$$

PHZ110>124-180-221500-
BUOY REPORTS

STATION/POSITION TIME  TEMP    WIND        PRES    WAVE   SWELL
                       AIR SEA DIR/SP/G            HT/PER HT/DIR
                 (UTC) (F)     (DEG/KT/KT) (MB)    (FT/S) (FT/D)
BUOY 51001       NOT AVBL
BUOY 51101       1400   78 79  140/ 10/ 12 1017.7F   6/11   7/300
BUOY 51100       1400   77     120/ 14       N/A
BUOY 51003       1400   79 81   40/ 12/ 16 1015.7F   6/ 8   5
BUOY 51004       1307   78 80   60/ 16/ 17 1014.7R  10/ 9   8/ 90
BARBERS PT BUOY  NOT AVBL
WAIMEA BAY BUOY  1400      80                N/A     5/13   3/320
KAILUA BAY BUOY  1400      79                N/A     7/ 8   2/ 20
LANAI BUOY       1400      80                N/A     2/13   2/210
BARBERS PT 2     1400      80                N/A     4/12   2/270
PAUWELA MAUI     1400      79                N/A     6/ 9   3/320
HILO             1400      80                N/A     7/ 9   2/100
KANEOHE BAY BUOY 1400      79                N/A     6/ 8   2/360
HANALEI KAUAI    NOT AVBL
KAHULUI HARBOR   1400   76 78   50/  9/ 12 1017.2F
HONOLULU HARBOR  1400   77      CALM  /  5 1017.0F
KILO NALU        NOT AVBL
HILO HARBOR      1400   72     210/  2/  4 1017.4S
MOKUOLOE         1400      78              1017.5F
NAWILIWILI       1400      79                N/A
WHOTS BUOY       NOT AVBL
BUOY 51028       NOT AVBL
$$

......................KEY........................................
  SKY/WX - SKY CONDITIONS/PRESENT WEATHER
  TMP    - TEMPERATURE IN FAHRENHEIT
  DWPT   - DEWPOINT IN FAHRENHEIT
  RH     - RELATIVE HUMIDITY IN PERCENT
  WIND   - DIRECTION AND SPEED /MPH FOR ISLANDS...KTS FOR BUOYS/
  PRES   - MEAN SEA LEVEL PRESSURE IN INCHES OF HG
  VSB    - VISIBILITY IN MILES
  HX     - HEAT INDEX
  WCI    - WIND CHILL INDEX
  VRB    - VARIABLE WIND DIRECTION
  N/A    - NOT AVAILABLE


USA.gov is the U.S. government's official web portal to all federal, state and local government web resources and services.